Weather History for KGUC - April, 2012

Change the Weather History Date:

Monday, April 2, 2012

  Actual Average (KASE) Record (KASE)
Temperature  
Mean Temperature 34 °F 36 °F  
Max Temperature 46 °F 48 °F - ()
Min Temperature 23 °F 24 °F - ()
Degree Days  
Heating Degree Days 30 29  
Month to date heating degree days 58  
Since 1 July heating degree days 7433  
Cooling Degree Days 0 0  
Month to date cooling degree days 0  
Year to date cooling degree days 0  
Moisture  
Dew Point 20 °F    
Average Humidity 50    
Maximum Humidity 69    
Minimum Humidity 36    
Precipitation  
Precipitation 0.00 in 0.05 in - ()
Month to date precipitation 0.10  
Year to date precipitation 3.66  
Sea Level Pressure  
Sea Level Pressure 29.76 in    
Wind  
Wind Speed 9 mph (WSW)    
Max Wind Speed 22 mph    
Max Gust Speed 28 mph    
Visibility 10 miles    
Events      
T = Trace of Precipitation, MM = Missing Value Source: NWS Daily Summary

Daily Weather History Graph

Daily Weather History Graph

Search for Another Location

Airport or City:

Trip Planner

Search our weather history database for the weather conditions in past years. The results will help you decide how hot, cold, wet, or windy it might be!

Date:

Astronomy

Apr. 02, 2012 Rise Set
Actual Time 6:50 AM MDT 7:32 PM MDT
Civil Twilight 6:23 AM MDT 7:59 PM MDT
Nautical Twilight 5:51 AM MDT 8:31 PM MDT
Astronomical Twilight 5:19 AM MDT 9:03 PM MDT
Moon 3:14 PM MDT (4/2) 4:02 AM MDT (4/2)
Length of Visible Light 13h 35m
Length of Day
12h 42m
Waxing Gibbous, 79% of the Moon is Illuminated
Apr 2
Waxing Gibbous
Apr 6
Full
Apr 13
Last Quarter
Apr 21
New
Apr 29
First Quarter

Hourly Weather History & Observations

Time (MDT) Temp. Windchill Dew Point Humidity Pressure Visibility Wind Dir Wind Speed Gust Speed Precip Events Conditions
12:35 AM 42.8 °F 37.0 °F 17.6 °F 36% 29.73 in 10.0 mi SW 10.4 mph - N/A   Clear
12:55 AM 42.8 °F 37.0 °F 17.6 °F 36% 29.74 in 10.0 mi SW 10.4 mph - N/A   Clear
1:15 AM 41.0 °F 34.7 °F 17.6 °F 39% 29.74 in 10.0 mi SW 10.4 mph - N/A   Clear
1:35 AM 39.2 °F 32.0 °F 17.6 °F 42% 29.73 in 10.0 mi SW 11.5 mph 16.1 mph N/A   Clear
1:55 AM 39.2 °F 33.0 °F 17.6 °F 42% 29.73 in 10.0 mi SW 9.2 mph - N/A   Clear
2:15 AM 37.4 °F 32.1 °F 19.4 °F 48% 29.73 in 10.0 mi WSW 6.9 mph - N/A   Clear
2:35 AM 37.4 °F 34.9 °F 19.4 °F 48% 29.73 in 10.0 mi NE 3.5 mph - N/A   Clear
2:55 AM 37.4 °F 32.8 °F 17.6 °F 45% 29.74 in 10.0 mi South 5.8 mph - N/A   Clear
3:15 AM 35.6 °F 29.2 °F 17.6 °F 48% 29.74 in 10.0 mi South 8.1 mph - N/A   Clear
3:55 AM 33.8 °F 30.8 °F 17.6 °F 52% 29.74 in 10.0 mi North 3.5 mph - N/A   Clear
4:15 AM 32.0 °F 26.4 °F 17.6 °F 55% 29.74 in 10.0 mi NNW 5.8 mph - N/A   Clear
4:35 AM 30.2 °F 24.3 °F 15.8 °F 55% 29.73 in 10.0 mi NW 5.8 mph - N/A   Clear
4:55 AM 30.2 °F 24.3 °F 15.8 °F 55% 29.73 in 10.0 mi North 5.8 mph - N/A   Clear
5:15 AM 28.4 °F 22.2 °F 15.8 °F 59% 29.72 in 10.0 mi NNW 5.8 mph - N/A   Clear
5:35 AM 28.4 °F 24.6 °F 17.6 °F 64% 29.71 in 10.0 mi NW 3.5 mph - N/A   Clear
5:55 AM 28.4 °F 24.6 °F 15.8 °F 59% 29.71 in 10.0 mi NNW 3.5 mph - N/A   Clear
6:15 AM 28.4 °F 24.6 °F 15.8 °F 59% 29.71 in 10.0 mi NNE 3.5 mph - N/A   Clear
6:35 AM 28.4 °F - 15.8 °F 59% 29.71 in 10.0 mi Calm Calm - N/A   Clear
6:55 AM 23.0 °F - 12.2 °F 63% 29.71 in 10.0 mi Calm Calm - N/A   Clear
7:15 AM 24.8 °F - 15.8 °F 69% 29.71 in 10.0 mi Calm Calm - N/A   Clear
7:35 AM 26.6 °F 21.2 °F 15.8 °F 64% 29.72 in 10.0 mi ENE 4.6 mph - N/A   Clear
7:55 AM 28.4 °F 24.6 °F 17.6 °F 64% 29.73 in 10.0 mi NE 3.5 mph - N/A   Clear
8:15 AM 30.2 °F - 17.6 °F 60% 29.73 in 10.0 mi Calm Calm - N/A   Clear
8:35 AM 32.0 °F - 19.4 °F 60% 29.73 in 10.0 mi Calm Calm - N/A   Clear
8:55 AM 33.8 °F 27.7 °F 21.2 °F 60% 29.72 in 10.0 mi SW 6.9 mph - N/A   Clear
9:15 AM 35.6 °F 29.9 °F 23.0 °F 60% 29.72 in 10.0 mi SW 6.9 mph - N/A   Clear
9:35 AM 37.4 °F 32.8 °F 24.8 °F 60% 29.73 in 10.0 mi SW 5.8 mph - N/A   Clear
9:55 AM 37.4 °F 34.9 °F 24.8 °F 60% 29.72 in 10.0 mi West 3.5 mph - N/A   Clear
10:15 AM 39.2 °F - 21.2 °F 49% 29.72 in 10.0 mi Calm Calm - N/A   Scattered Clouds
10:35 AM 41.0 °F 39.0 °F 21.2 °F 45% 29.72 in 10.0 mi SSW 3.5 mph - N/A   Mostly Cloudy
10:55 AM 41.0 °F 38.0 °F 21.2 °F 45% 29.72 in 10.0 mi WNW 4.6 mph - N/A   Overcast
11:55 AM 42.8 °F 35.8 °F 23.0 °F 46% 29.72 in 10.0 mi WSW 13.8 mph - N/A   Overcast
12:15 PM 41.0 °F 33.5 °F 23.0 °F 49% 29.73 in 10.0 mi WSW 13.8 mph - N/A   Overcast
12:35 PM 39.2 °F 30.8 °F 24.8 °F 56% 29.72 in 10.0 mi WSW 15.0 mph - N/A   Overcast
12:55 PM 39.2 °F 30.5 °F 24.8 °F 56% 29.72 in 10.0 mi WSW 16.1 mph - N/A   Overcast
1:15 PM 39.2 °F 30.2 °F 26.6 °F 61% 29.72 in 10.0 mi SW 17.3 mph 20.7 mph N/A   Overcast
1:35 PM 41.0 °F 32.8 °F 26.6 °F 57% 29.73 in 10.0 mi WSW 16.1 mph - N/A   Overcast
1:55 PM 41.0 °F 33.9 °F 26.6 °F 57% 29.74 in 10.0 mi WSW 12.7 mph 16.1 mph N/A   Overcast
2:15 PM 41.0 °F 33.5 °F 26.6 °F 57% 29.74 in 10.0 mi West 13.8 mph 18.4 mph N/A   Overcast
2:35 PM 41.0 °F 33.1 °F 26.6 °F 57% 29.75 in 10.0 mi WSW 15.0 mph - N/A   Overcast
2:55 PM 41.0 °F 33.5 °F 24.8 °F 53% 29.76 in 10.0 mi SW 13.8 mph - N/A   Overcast
3:15 PM 41.0 °F 33.9 °F 24.8 °F 53% 29.76 in 10.0 mi WSW 12.7 mph - N/A   Overcast
3:35 PM 42.8 °F 36.2 °F 24.8 °F 49% 29.77 in 10.0 mi West 12.7 mph 23.0 mph N/A   Overcast
3:55 PM 44.6 °F 39.7 °F 24.8 °F 46% 29.77 in 10.0 mi West 9.2 mph - N/A   Overcast
4:15 PM 44.6 °F 37.8 °F 24.8 °F 46% 29.78 in 10.0 mi SSW 15.0 mph 19.6 mph N/A   Mostly Cloudy
4:35 PM 46.4 °F 41.5 °F 23.0 °F 40% 29.78 in 10.0 mi ESE 10.4 mph - N/A   Mostly Cloudy
4:55 PM 46.4 °F 41.5 °F 21.2 °F 37% 29.79 in 10.0 mi North 10.4 mph 18.4 mph N/A   Overcast
5:15 PM 46.4 °F 40.1 °F 21.2 °F 37% 29.80 in 10.0 mi ESE 15.0 mph 26.5 mph N/A   Overcast
5:35 PM 46.4 °F 39.5 °F 21.2 °F 37% 29.82 in 10.0 mi ESE 17.3 mph - N/A   Overcast
5:55 PM 46.4 °F 38.5 °F 21.2 °F 37% 29.83 in 10.0 mi ESE 21.9 mph 26.5 mph N/A   Overcast
6:15 PM 46.4 °F 38.7 °F 21.2 °F 37% 29.85 in 10.0 mi ESE 20.7 mph 27.6 mph N/A   Scattered Clouds
6:35 PM 44.6 °F 36.9 °F 21.2 °F 39% 29.86 in 10.0 mi ESE 18.4 mph - N/A   Mostly Cloudy
6:55 PM 44.6 °F 36.9 °F 19.4 °F 37% 29.87 in 10.0 mi ESE 18.4 mph 25.3 mph N/A   Mostly Cloudy
7:15 PM 42.8 °F 35.8 °F 19.4 °F 39% 29.90 in 10.0 mi ESE 13.8 mph 17.3 mph N/A   Clear
7:35 PM 39.2 °F 32.5 °F 19.4 °F 45% 29.91 in 10.0 mi ESE 10.4 mph 16.1 mph N/A   Clear
7:55 PM 39.2 °F 32.0 °F 19.4 °F 45% 29.92 in 10.0 mi East 11.5 mph - N/A   Clear
8:15 PM 39.2 °F 35.0 °F 19.4 °F 45% 29.92 in 10.0 mi NE 5.8 mph - N/A   Clear
8:35 PM 39.2 °F - 19.4 °F 45% 29.93 in 10.0 mi Calm Calm - N/A   Clear
8:55 PM 37.4 °F 32.1 °F 19.4 °F 48% 29.93 in 10.0 mi NW 6.9 mph - N/A   Clear
9:15 PM 37.4 °F 32.8 °F 19.4 °F 48% 29.94 in 10.0 mi North 5.8 mph - N/A   Clear
9:35 PM 37.4 °F 32.1 °F 19.4 °F 48% 29.95 in 10.0 mi NE 6.9 mph - N/A   Clear
9:55 PM 37.4 °F 34.9 °F 19.4 °F 48% 29.95 in 10.0 mi WSW 3.5 mph - N/A   Clear
10:15 PM 33.8 °F 29.6 °F 19.4 °F 56% 29.96 in 10.0 mi SW 4.6 mph - N/A   Clear
10:35 PM 32.0 °F 28.7 °F 19.4 °F 60% 29.97 in 10.0 mi SSE 3.5 mph - N/A   Clear
10:55 PM 30.2 °F 24.3 °F 21.2 °F 69% 29.96 in 10.0 mi WSW 5.8 mph - N/A   Clear
11:15 PM 30.2 °F 25.4 °F 21.2 °F 69% 29.96 in 10.0 mi South 4.6 mph - N/A   Clear
11:35 PM 28.4 °F 22.2 °F 21.2 °F 74% 29.96 in 10.0 mi SSE 5.8 mph - N/A   Clear
11:55 PM 28.4 °F 23.3 °F 21.2 °F 74% 29.97 in 10.0 mi NNW 4.6 mph - N/A   Clear